Weather History for Elefsis, Greece

Change the Weather History Date:

Saturday, February 2, 2013

  Actual Average Record
Temperature  
Mean Temperature 52 °F -  
Max Temperature 64 °F 55 °F 64 °F (2004)
Min Temperature 41 °F 39 °F 33 °F (2011)
Degree Days  
Heating Degree Days 12    
Growing Degree Days 2 (Base 50)    
Moisture  
Dew Point 45 °F    
Average Humidity 79    
Maximum Humidity 93    
Minimum Humidity 55    
Precipitation  
Precipitation 0.00 in - - ()
Sea Level Pressure  
Sea Level Pressure 29.82 in    
Wind  
Wind Speed 2 mph ()    
Max Wind Speed 12 mph    
Max Gust Speed -    
Visibility 6.2 miles    
Events      
Averages and records for this station are not official NWS values.
T = Trace of Precipitation, MM = Missing Value Source: Averaged Metar Reports

Daily Weather History Graph

Daily Weather History Graph

Search for Another Location

Airport:

Trip Planner

Search our weather history database for the weather conditions in past years. The results will help you decide how hot, cold, wet, or windy it might be!

Date:

Astronomy

Feb. 02, 2013 Rise Set
Actual Time 7:29 AM EET 5:49 PM EET
Civil Twilight 7:01 AM EET 6:17 PM EET
Nautical Twilight 6:30 AM EET 6:49 PM EET
Astronomical Twilight 5:59 AM EET 7:20 PM EET
Moon No Moon Rise 10:34 AM EET (2/2)
Length of Visible Light 11h 15m
Length of Day
10h 20m
Waning Gibbous, 63% of the Moon is Illuminated
Feb 2
Waning Gibbous
Feb 3
Last Quarter
Feb 10
New
Feb 17
First Quarter
Feb 25
Full

Hourly Weather History & Observations

Time (EET) Temp. Windchill Dew Point Humidity Pressure Visibility Wind Dir Wind Speed Gust Speed Precip Events Conditions
12:50 AM 42.8 °F - 39.2 °F 87% 29.89 in - Calm Calm - N/A   Clear
1:50 AM 41.0 °F - 39.2 °F 93% 29.89 in - Calm Calm - N/A   Clear
2:50 AM 41.0 °F - 39.2 °F 93% 29.86 in - Calm Calm - N/A   Clear
3:50 AM 42.8 °F - 39.2 °F 87% 29.86 in - Calm Calm - N/A   Clear
4:50 AM 41.0 °F - 39.2 °F 93% 29.83 in - Calm Calm - N/A   Clear
5:20 AM 41.0 °F - 39.2 °F 93% 29.83 in - Calm Calm - N/A   Clear
5:50 AM 41.0 °F - 39.2 °F 93% 29.83 in - Calm Calm - N/A   Clear
6:50 AM 42.8 °F - 41.0 °F 93% 29.83 in - Calm Calm - N/A   Clear
7:20 AM 42.8 °F - 41.0 °F 93% 29.83 in 6.2 mi Calm Calm - N/A   Partly Cloudy
7:50 AM 42.8 °F 41.1 °F 41.0 °F 93% 29.83 in 6.2 mi NNW 3.5 mph - N/A   Partly Cloudy
8:20 AM 44.6 °F - 42.8 °F 93% 29.83 in 6.2 mi Calm Calm - N/A   Partly Cloudy
8:50 AM 46.4 °F - 44.6 °F 93% 29.83 in 6.2 mi Calm Calm - N/A   Scattered Clouds
9:20 AM 50.0 °F - 46.4 °F 87% 29.83 in 6.2 mi Calm Calm - N/A   Scattered Clouds
9:50 AM 55.4 °F - 48.2 °F 77% 29.83 in 6.2 mi Calm Calm - N/A   Scattered Clouds
10:20 AM 57.2 °F - 48.2 °F 72% 29.83 in 6.2 mi SE 3.5 mph - N/A   Partly Cloudy
10:50 AM 60.8 °F - 50.0 °F 68% 29.83 in 6.2 mi South 8.1 mph - N/A   Partly Cloudy
11:20 AM 60.8 °F - 50.0 °F 68% 29.83 in 6.2 mi South 11.5 mph - N/A   Partly Cloudy
11:50 AM 60.8 °F - 50.0 °F 68% 29.83 in 6.2 mi SSW 10.4 mph - N/A   Partly Cloudy
12:20 PM 62.6 °F - 48.2 °F 59% 29.80 in 6.2 mi South 10.4 mph - N/A   Partly Cloudy
12:50 PM 62.6 °F - 48.2 °F 59% 29.80 in 6.2 mi SSE 8.1 mph - N/A   Partly Cloudy
1:20 PM 62.6 °F - 48.2 °F 59% 29.80 in 6.2 mi SSW 11.5 mph - N/A   Partly Cloudy
1:50 PM 62.6 °F - 46.4 °F 55% 29.80 in 6.2 mi South 11.5 mph - N/A   Partly Cloudy
2:20 PM 64.4 °F - 48.2 °F 56% 29.80 in 6.2 mi South 10.4 mph - N/A   Partly Cloudy
2:50 PM 62.6 °F - 48.2 °F 59% 29.80 in 6.2 mi South 8.1 mph - N/A   Partly Cloudy
4:50 PM 62.6 °F - 48.2 °F 59% 29.77 in - South 6.9 mph - N/A   Clear
5:20 PM 60.8 °F - 50.0 °F 68% 29.77 in - Calm Calm - N/A   Clear
6:20 PM 57.2 °F - 50.0 °F 77% 29.77 in - Calm Calm - N/A   Clear
7:20 PM 51.8 °F - 48.2 °F 88% 29.80 in - Calm Calm - N/A   Clear
7:50 PM 51.8 °F - 46.4 °F 82% 29.80 in - Calm Calm - N/A   Clear
8:20 PM 50.0 °F - 46.4 °F 87% 29.80 in - Calm Calm - N/A   Clear
8:50 PM 48.2 °F - 44.6 °F 87% 29.80 in - Calm Calm - N/A   Clear
9:20 PM 51.8 °F - 46.4 °F 82% 29.80 in - Calm Calm - N/A   Clear
9:50 PM 50.0 °F - 44.6 °F 82% 29.80 in - Calm Calm - N/A   Clear
10:20 PM 51.8 °F - 44.6 °F 76% 29.80 in - Calm Calm - N/A   Clear
10:50 PM 51.8 °F - 44.6 °F 76% 29.80 in - Calm Calm - N/A   Clear
11:50 PM 55.4 °F - 46.4 °F 72% 29.80 in - South 4.6 mph - N/A   Clear